Year,Month,Day,Hour,Minute,Value (Times are PST for temperature in C)
2016,03,05,00,00,8.20
2016,03,05,00,01,8.20
2016,03,05,00,02,8.20
2016,03,05,00,03,8.20
2016,03,05,00,04,8.20
2016,03,05,00,05,8.20
2016,03,05,00,06,8.20
2016,03,05,00,07,8.10
2016,03,05,00,08,8.10
2016,03,05,00,09,8.10
2016,03,05,00,10,8.10
2016,03,05,00,11,8.10
2016,03,05,00,12,8.10
2016,03,05,00,13,8.10
2016,03,05,00,14,8.10
2016,03,05,00,15,8.10
2016,03,05,00,16,8.10
2016,03,05,00,17,8.10
2016,03,05,00,18,8.00
2016,03,05,00,19,8.00
2016,03,05,00,20,8.00
2016,03,05,00,21,8.00
2016,03,05,00,22,8.00
2016,03,05,00,23,8.00
2016,03,05,00,24,8.00
2016,03,05,00,25,8.00
2016,03,05,00,26,8.10
2016,03,05,00,27,8.10
2016,03,05,00,28,8.10
2016,03,05,00,29,8.10
2016,03,05,00,30,8.10
2016,03,05,00,31,8.10
2016,03,05,00,32,8.10
2016,03,05,00,33,8.10
2016,03,05,00,34,8.10
2016,03,05,00,35,8.10
2016,03,05,00,36,8.10
2016,03,05,00,37,8.10
2016,03,05,00,38,8.10
2016,03,05,00,39,8.10
2016,03,05,00,40,8.10
2016,03,05,00,41,8.10
2016,03,05,00,42,8.10
2016,03,05,00,43,8.10
2016,03,05,00,44,8.00
2016,03,05,00,45,8.00
2016,03,05,00,46,8.00
2016,03,05,00,47,8.00
2016,03,05,00,48,8.00
2016,03,05,00,49,8.00
2016,03,05,00,50,7.90
2016,03,05,00,51,7.90
2016,03,05,00,52,7.90
2016,03,05,00,53,7.90
2016,03,05,00,54,7.90
2016,03,05,00,55,7.90
2016,03,05,00,56,7.90
2016,03,05,00,57,7.80
2016,03,05,00,58,7.80
2016,03,05,00,59,7.80
2016,03,05,01,00,7.80
2016,03,05,01,01,7.80
2016,03,05,01,02,7.80
2016,03,05,01,03,7.80
2016,03,05,01,04,7.80
2016,03,05,01,05,7.80
2016,03,05,01,06,7.80
2016,03,05,01,07,7.80
2016,03,05,01,08,7.80
2016,03,05,01,09,7.80
2016,03,05,01,10,7.80
2016,03,05,01,11,7.80
2016,03,05,01,12,7.80
2016,03,05,01,13,7.80
2016,03,05,01,14,7.80
2016,03,05,01,15,7.80
2016,03,05,01,16,7.80
2016,03,05,01,17,7.80
2016,03,05,01,18,7.80
2016,03,05,01,19,7.80
2016,03,05,01,20,7.80
2016,03,05,01,21,7.80
2016,03,05,01,22,7.80
2016,03,05,01,23,7.80
2016,03,05,01,24,7.80
2016,03,05,01,25,7.80
2016,03,05,01,26,7.80
2016,03,05,01,27,7.80
2016,03,05,01,28,7.80
2016,03,05,01,29,7.70
2016,03,05,01,30,7.70
2016,03,05,01,31,7.70
2016,03,05,01,32,7.70
2016,03,05,01,33,7.70
2016,03,05,01,34,7.70
2016,03,05,01,35,7.70
2016,03,05,01,36,7.70
2016,03,05,01,37,7.70
2016,03,05,01,38,7.70
2016,03,05,01,39,7.70
2016,03,05,01,40,7.70
2016,03,05,01,41,7.70
2016,03,05,01,42,7.60
2016,03,05,01,43,7.60
2016,03,05,01,44,7.60
2016,03,05,01,45,7.60
2016,03,05,01,46,7.60
2016,03,05,01,47,7.60
2016,03,05,01,48,7.60
2016,03,05,01,49,7.50
2016,03,05,01,50,7.50
2016,03,05,01,51,7.50
2016,03,05,01,52,7.50
2016,03,05,01,53,7.50
2016,03,05,01,54,7.50
2016,03,05,01,55,7.50
2016,03,05,01,56,7.50
2016,03,05,01,57,7.50
2016,03,05,01,58,7.50
2016,03,05,01,59,7.50
2016,03,05,02,00,7.50
2016,03,05,02,01,7.50
2016,03,05,02,02,7.50
2016,03,05,02,03,7.50
2016,03,05,02,04,7.50
2016,03,05,02,05,7.50
2016,03,05,02,06,7.60
2016,03,05,02,07,7.60
2016,03,05,02,08,7.60
2016,03,05,02,09,7.60
2016,03,05,02,10,7.60
2016,03,05,02,11,7.60
2016,03,05,02,12,7.60
2016,03,05,02,13,7.60
2016,03,05,02,14,7.60
2016,03,05,02,15,7.60
2016,03,05,02,16,7.60
2016,03,05,02,17,7.60
2016,03,05,02,18,7.60
2016,03,05,02,19,7.60
2016,03,05,02,20,7.60
2016,03,05,02,21,7.60
2016,03,05,02,22,7.60
2016,03,05,02,23,7.60
2016,03,05,02,24,7.70
2016,03,05,02,25,7.70
2016,03,05,02,26,7.70
2016,03,05,02,27,7.70
2016,03,05,02,28,7.70
2016,03,05,02,29,7.70
2016,03,05,02,30,7.70
2016,03,05,02,31,7.70
2016,03,05,02,32,7.70
2016,03,05,02,33,7.80
2016,03,05,02,34,7.80
2016,03,05,02,35,7.80
2016,03,05,02,36,7.80
2016,03,05,02,37,7.80
2016,03,05,02,38,7.80
2016,03,05,02,39,7.80
2016,03,05,02,40,7.80
2016,03,05,02,41,7.80
2016,03,05,02,42,7.90
2016,03,05,02,43,7.90
2016,03,05,02,44,7.90
2016,03,05,02,45,7.90
2016,03,05,02,46,7.90
2016,03,05,02,47,7.90
2016,03,05,02,48,8.00
2016,03,05,02,49,8.00
2016,03,05,02,50,8.00
2016,03,05,02,51,8.00
2016,03,05,02,52,8.00
2016,03,05,02,53,8.00
2016,03,05,02,54,8.10
2016,03,05,02,55,8.10
2016,03,05,02,56,8.10
2016,03,05,02,57,8.10
2016,03,05,02,58,8.10
2016,03,05,02,59,8.10
2016,03,05,03,00,8.10
2016,03,05,03,01,8.10
2016,03,05,03,02,8.10
2016,03,05,03,03,8.10
2016,03,05,03,04,8.10
2016,03,05,03,05,8.10
2016,03,05,03,06,8.10
2016,03,05,03,07,8.10
2016,03,05,03,08,8.10
2016,03,05,03,09,8.10
2016,03,05,03,10,8.10
2016,03,05,03,11,8.10
2016,03,05,03,12,8.10
2016,03,05,03,13,8.10
2016,03,05,03,14,8.10
2016,03,05,03,15,8.20
2016,03,05,03,16,8.20
2016,03,05,03,17,8.20
2016,03,05,03,18,8.20
2016,03,05,03,19,8.10
2016,03,05,03,20,8.20
2016,03,05,03,21,8.20
2016,03,05,03,22,8.10
2016,03,05,03,23,8.10
2016,03,05,03,24,8.10
2016,03,05,03,25,8.10
2016,03,05,03,26,8.10
2016,03,05,03,27,8.10
2016,03,05,03,28,8.10
2016,03,05,03,29,8.00
2016,03,05,03,30,8.00
2016,03,05,03,31,8.00
2016,03,05,03,32,7.90
2016,03,05,03,33,7.90
2016,03,05,03,34,7.90
2016,03,05,03,35,7.90
2016,03,05,03,36,7.80
2016,03,05,03,37,7.80
2016,03,05,03,38,7.80
2016,03,05,03,39,7.80
2016,03,05,03,40,7.80
2016,03,05,03,41,7.80
2016,03,05,03,42,7.70
2016,03,05,03,43,7.70
2016,03,05,03,44,7.70
2016,03,05,03,45,7.70
2016,03,05,03,46,7.70
2016,03,05,03,47,7.70
2016,03,05,03,48,7.70
2016,03,05,03,49,7.70
2016,03,05,03,50,7.60
2016,03,05,03,51,7.60
2016,03,05,03,52,7.60
2016,03,05,03,53,7.60
2016,03,05,03,54,7.60
2016,03,05,03,55,7.60
2016,03,05,03,56,7.60
2016,03,05,03,57,7.60
2016,03,05,03,58,7.60
2016,03,05,03,59,7.60
2016,03,05,04,00,7.60
2016,03,05,04,01,7.60
2016,03,05,04,02,7.60
2016,03,05,04,03,7.60
2016,03,05,04,04,7.60
2016,03,05,04,05,7.60
2016,03,05,04,06,7.60
2016,03,05,04,07,7.60
2016,03,05,04,08,7.60
2016,03,05,04,09,7.60
2016,03,05,04,10,7.60
2016,03,05,04,11,7.60
2016,03,05,04,12,7.60
2016,03,05,04,13,7.50
2016,03,05,04,14,7.50
2016,03,05,04,15,7.50
2016,03,05,04,16,7.50
2016,03,05,04,17,7.50
2016,03,05,04,18,7.50
2016,03,05,04,19,7.50
2016,03,05,04,20,7.40
2016,03,05,04,21,7.40
2016,03,05,04,22,7.40
2016,03,05,04,23,7.40
2016,03,05,04,24,7.40
2016,03,05,04,25,7.40
2016,03,05,04,26,7.40
2016,03,05,04,27,7.40
2016,03,05,04,28,7.30
2016,03,05,04,29,7.30
2016,03,05,04,30,7.30
2016,03,05,04,31,7.30
2016,03,05,04,32,7.30
2016,03,05,04,33,7.30
2016,03,05,04,34,7.20
2016,03,05,04,35,7.20
2016,03,05,04,36,7.20
2016,03,05,04,37,7.20
2016,03,05,04,38,7.20
2016,03,05,04,39,7.20
2016,03,05,04,40,7.20
2016,03,05,04,41,7.10
2016,03,05,04,42,7.10
2016,03,05,04,43,7.10
2016,03,05,04,44,7.10
2016,03,05,04,45,7.10
2016,03,05,04,46,7.10
2016,03,05,04,47,7.10
2016,03,05,04,48,7.10
2016,03,05,04,49,7.00
2016,03,05,04,50,7.00
2016,03,05,04,51,7.00
2016,03,05,04,52,7.00
2016,03,05,04,53,7.00
2016,03,05,04,54,7.00
2016,03,05,04,55,6.90
2016,03,05,04,56,6.90
2016,03,05,04,57,6.90
2016,03,05,04,58,6.90
2016,03,05,04,59,6.90
2016,03,05,05,00,6.90
2016,03,05,05,01,6.90
2016,03,05,05,02,6.90
2016,03,05,05,03,6.90
2016,03,05,05,04,6.90
2016,03,05,05,05,6.90
2016,03,05,05,06,6.90
2016,03,05,05,07,6.90
2016,03,05,05,08,6.90
2016,03,05,05,09,6.90
2016,03,05,05,10,6.90
2016,03,05,05,11,6.90
2016,03,05,05,12,6.80
2016,03,05,05,13,6.80
2016,03,05,05,14,6.80
2016,03,05,05,15,6.80
2016,03,05,05,16,6.80
2016,03,05,05,17,6.80
2016,03,05,05,18,6.80
2016,03,05,05,19,6.80
2016,03,05,05,20,6.80
2016,03,05,05,21,6.80
2016,03,05,05,22,6.80
2016,03,05,05,23,6.80
2016,03,05,05,24,6.80
2016,03,05,05,25,6.80
2016,03,05,05,26,6.80
2016,03,05,05,27,6.80
2016,03,05,05,28,6.80
2016,03,05,05,29,6.80
2016,03,05,05,30,6.80
2016,03,05,05,31,6.80
2016,03,05,05,32,6.80
2016,03,05,05,33,6.80
2016,03,05,05,34,6.70
2016,03,05,05,35,6.70
2016,03,05,05,36,6.70
2016,03,05,05,37,6.70
2016,03,05,05,38,6.70
2016,03,05,05,39,6.70
2016,03,05,05,40,6.70
2016,03,05,05,41,6.70
2016,03,05,05,42,6.70
2016,03,05,05,43,6.60
2016,03,05,05,44,6.60
2016,03,05,05,45,6.60
2016,03,05,05,46,6.60
2016,03,05,05,47,6.60
2016,03,05,05,48,6.60
2016,03,05,05,49,6.50
2016,03,05,05,50,6.50
2016,03,05,05,51,6.50
2016,03,05,05,52,6.50
2016,03,05,05,53,6.50
2016,03,05,05,54,6.40
2016,03,05,05,55,6.40
2016,03,05,05,56,6.40
2016,03,05,05,57,6.40
2016,03,05,05,58,6.40
2016,03,05,05,59,6.40
2016,03,05,06,00,6.40
2016,03,05,06,01,6.40
2016,03,05,06,02,6.40
2016,03,05,06,03,6.40
2016,03,05,06,04,6.40
2016,03,05,06,05,6.40
2016,03,05,06,06,6.40
2016,03,05,06,07,6.40
2016,03,05,06,08,6.40
2016,03,05,06,09,6.40
2016,03,05,06,10,6.40
2016,03,05,06,11,6.40
2016,03,05,06,12,6.40
2016,03,05,06,13,6.40
2016,03,05,06,14,6.40
2016,03,05,06,15,6.40
2016,03,05,06,16,6.40
2016,03,05,06,17,6.40
2016,03,05,06,18,6.40
2016,03,05,06,19,6.40
2016,03,05,06,20,6.40
2016,03,05,06,21,6.30
2016,03,05,06,22,6.30
2016,03,05,06,23,6.30
2016,03,05,06,24,6.30
2016,03,05,06,25,6.30
2016,03,05,06,26,6.30
2016,03,05,06,27,6.30
2016,03,05,06,28,6.20
2016,03,05,06,29,6.20
2016,03,05,06,30,6.30
2016,03,05,06,31,6.30
2016,03,05,06,32,6.30
2016,03,05,06,33,6.30
2016,03,05,06,34,6.30
2016,03,05,06,35,6.30
2016,03,05,06,36,6.30
2016,03,05,06,37,6.30
2016,03,05,06,38,6.30
2016,03,05,06,39,6.40
2016,03,05,06,40,6.40
2016,03,05,06,41,6.40
2016,03,05,06,42,6.50
2016,03,05,06,43,6.50
2016,03,05,06,44,6.60
2016,03,05,06,45,6.60
2016,03,05,06,46,6.70
2016,03,05,06,47,6.70
2016,03,05,06,48,6.80
2016,03,05,06,49,6.80
2016,03,05,06,50,6.80
2016,03,05,06,51,6.90
2016,03,05,06,52,6.90
2016,03,05,06,53,7.00
2016,03,05,06,54,7.00
2016,03,05,06,55,7.10
2016,03,05,06,56,7.10
2016,03,05,06,57,7.20
2016,03,05,06,58,7.20
2016,03,05,06,59,7.20
2016,03,05,07,00,7.30
2016,03,05,07,01,7.30
2016,03,05,07,02,7.30
2016,03,05,07,03,7.40
2016,03,05,07,04,7.40
2016,03,05,07,05,7.40
2016,03,05,07,06,7.40
2016,03,05,07,07,7.50
2016,03,05,07,08,7.50
2016,03,05,07,09,7.60
2016,03,05,07,10,7.60
2016,03,05,07,11,7.70
2016,03,05,07,12,7.70
2016,03,05,07,13,7.80
2016,03,05,07,14,7.90
2016,03,05,07,15,7.90
2016,03,05,07,16,8.00
2016,03,05,07,17,8.00
2016,03,05,07,18,8.10
2016,03,05,07,19,8.10
2016,03,05,07,20,8.10
2016,03,05,07,21,8.20
2016,03,05,07,22,8.20
2016,03,05,07,23,8.20
2016,03,05,07,24,8.30
2016,03,05,07,25,8.30
2016,03,05,07,26,8.30
2016,03,05,07,27,8.30
2016,03,05,07,28,8.30
2016,03,05,07,29,8.30
2016,03,05,07,30,8.40
2016,03,05,07,31,8.40
2016,03,05,07,32,8.40
2016,03,05,07,33,8.40
2016,03,05,07,34,8.40
2016,03,05,07,35,8.40
2016,03,05,07,36,8.50
2016,03,05,07,37,8.50
2016,03,05,07,38,8.50
2016,03,05,07,39,8.60
2016,03,05,07,40,8.60
2016,03,05,07,41,8.60
2016,03,05,07,42,8.60
2016,03,05,07,43,8.60
2016,03,05,07,44,8.60
2016,03,05,07,45,8.60
2016,03,05,07,46,8.60
2016,03,05,07,47,8.60
2016,03,05,07,48,8.50
2016,03,05,07,49,8.50
2016,03,05,07,50,8.50
2016,03,05,07,51,8.50
2016,03,05,07,52,8.50
2016,03,05,07,53,8.60
2016,03,05,07,54,8.60
2016,03,05,07,55,8.60
2016,03,05,07,56,8.60
2016,03,05,07,57,8.60
2016,03,05,07,58,8.60
2016,03,05,07,59,8.60
2016,03,05,08,00,8.60
2016,03,05,08,01,8.60
2016,03,05,08,02,8.60
2016,03,05,08,03,8.60
2016,03,05,08,04,8.60
2016,03,05,08,05,8.60
2016,03,05,08,06,8.60
2016,03,05,08,07,8.60
2016,03,05,08,08,8.60
2016,03,05,08,09,8.60
2016,03,05,08,10,8.60
2016,03,05,08,11,8.70
2016,03,05,08,12,8.70
2016,03,05,08,13,8.70
2016,03,05,08,14,8.70
2016,03,05,08,15,8.70
2016,03,05,08,16,8.70
2016,03,05,08,17,8.70
2016,03,05,08,18,8.70
2016,03,05,08,19,8.70
2016,03,05,08,20,8.70
2016,03,05,08,21,8.80
2016,03,05,08,22,8.80
2016,03,05,08,23,8.80
2016,03,05,08,24,8.80
2016,03,05,08,25,8.80
2016,03,05,08,26,8.80
2016,03,05,08,27,8.90
2016,03,05,08,28,8.90
2016,03,05,08,29,9.00
2016,03,05,08,30,9.10
2016,03,05,08,31,9.20
2016,03,05,08,32,9.20
2016,03,05,08,33,9.30
2016,03,05,08,34,9.40
2016,03,05,08,35,9.40
2016,03,05,08,36,9.50
2016,03,05,08,37,9.60
2016,03,05,08,38,9.70
2016,03,05,08,39,9.70
2016,03,05,08,40,9.80
2016,03,05,08,41,9.80
2016,03,05,08,42,9.90
2016,03,05,08,43,10.00
2016,03,05,08,44,10.00
2016,03,05,08,45,10.10
2016,03,05,08,46,10.20
2016,03,05,08,47,10.20
2016,03,05,08,48,10.30
2016,03,05,08,49,10.40
2016,03,05,08,50,10.40
2016,03,05,08,51,10.50
2016,03,05,08,52,10.60
2016,03,05,08,53,10.60
2016,03,05,08,54,10.70
2016,03,05,08,55,10.80
2016,03,05,08,56,10.80
2016,03,05,08,57,10.90
2016,03,05,08,58,10.90
2016,03,05,08,59,11.00
2016,03,05,09,00,11.00
2016,03,05,09,01,11.10
2016,03,05,09,02,11.10
2016,03,05,09,03,11.10
2016,03,05,09,04,11.20
2016,03,05,09,05,11.20
2016,03,05,09,06,11.20
2016,03,05,09,07,11.30
2016,03,05,09,08,11.30
2016,03,05,09,09,11.30
2016,03,05,09,10,11.40
2016,03,05,09,11,11.40
2016,03,05,09,12,11.40
2016,03,05,09,13,11.50
2016,03,05,09,14,11.50
2016,03,05,09,15,11.50
2016,03,05,09,16,11.60
2016,03,05,09,17,11.60
2016,03,05,09,18,11.60
2016,03,05,09,19,11.70
2016,03,05,09,20,11.70
2016,03,05,09,21,11.70
2016,03,05,09,22,11.70
2016,03,05,09,23,11.80
2016,03,05,09,24,11.80
2016,03,05,09,25,11.80
2016,03,05,09,26,11.80
2016,03,05,09,27,11.80
2016,03,05,09,28,11.80
2016,03,05,09,29,11.90
2016,03,05,09,30,11.90
2016,03,05,09,31,11.90
2016,03,05,09,32,11.90
2016,03,05,09,33,11.90
2016,03,05,09,34,11.90
2016,03,05,09,35,11.80
2016,03,05,09,36,11.80
2016,03,05,09,37,11.80
2016,03,05,09,38,11.80
2016,03,05,09,39,11.80
2016,03,05,09,40,11.80
2016,03,05,09,41,11.80
2016,03,05,09,42,11.80
2016,03,05,09,43,11.90
2016,03,05,09,44,11.90
2016,03,05,09,45,12.00
2016,03,05,09,46,12.00
2016,03,05,09,47,12.10
2016,03,05,09,48,12.10
2016,03,05,09,49,12.10
2016,03,05,09,50,12.10
2016,03,05,09,51,12.10
2016,03,05,09,52,12.10
2016,03,05,09,53,12.00
2016,03,05,09,54,12.00
2016,03,05,09,55,12.00
2016,03,05,09,56,11.90
2016,03,05,09,57,11.90
2016,03,05,09,58,11.90
2016,03,05,09,59,11.90
2016,03,05,10,00,11.80
2016,03,05,10,01,11.80
2016,03,05,10,02,11.80
2016,03,05,10,03,11.80
2016,03,05,10,04,11.80
2016,03,05,10,05,11.80
2016,03,05,10,06,11.80
2016,03,05,10,07,11.90
2016,03,05,10,08,11.90
2016,03,05,10,09,11.90
2016,03,05,10,10,12.00
2016,03,05,10,11,12.00
2016,03,05,10,12,12.00
2016,03,05,10,13,12.10
2016,03,05,10,14,12.10
2016,03,05,10,15,12.10
2016,03,05,10,16,12.20
2016,03,05,10,17,12.20
2016,03,05,10,18,12.20
2016,03,05,10,19,12.30
2016,03,05,10,20,12.30
2016,03,05,10,21,12.30
2016,03,05,10,22,12.40
2016,03,05,10,23,12.40
2016,03,05,10,24,12.40
2016,03,05,10,25,12.40
2016,03,05,10,26,12.40
2016,03,05,10,27,12.40
2016,03,05,10,28,12.40
2016,03,05,10,29,12.50
2016,03,05,10,30,12.50
2016,03,05,10,31,12.40
2016,03,05,10,32,12.40
2016,03,05,10,33,12.40
2016,03,05,10,34,12.40
2016,03,05,10,35,12.50
2016,03,05,10,36,12.50
2016,03,05,10,37,12.50
2016,03,05,10,38,12.60
2016,03,05,10,39,12.60
2016,03,05,10,40,12.60
2016,03,05,10,41,12.60
2016,03,05,10,42,12.60
2016,03,05,10,43,12.60
2016,03,05,10,44,12.60
2016,03,05,10,45,12.60
2016,03,05,10,46,12.60
2016,03,05,10,47,12.60
2016,03,05,10,48,12.60
2016,03,05,10,49,12.60
2016,03,05,10,50,12.60
2016,03,05,10,51,12.60
2016,03,05,10,52,12.60
2016,03,05,10,53,12.60
2016,03,05,10,54,12.60
2016,03,05,10,55,12.60
2016,03,05,10,56,12.60
2016,03,05,10,57,12.70
2016,03,05,10,58,12.70
2016,03,05,10,59,12.70
2016,03,05,11,00,12.70
2016,03,05,11,01,12.70
2016,03,05,11,02,12.70
2016,03,05,11,03,12.70
2016,03,05,11,04,12.80
2016,03,05,11,05,12.80
2016,03,05,11,06,12.80
2016,03,05,11,07,12.80
2016,03,05,11,08,12.80
2016,03,05,11,09,12.90
2016,03,05,11,10,12.90
2016,03,05,11,11,12.90
2016,03,05,11,12,12.90
2016,03,05,11,13,13.00
2016,03,05,11,14,13.00
2016,03,05,11,15,13.10
2016,03,05,11,16,13.10
2016,03,05,11,17,13.10
2016,03,05,11,18,13.20
2016,03,05,11,19,13.20
2016,03,05,11,20,13.20
2016,03,05,11,21,13.20
2016,03,05,11,22,13.10
2016,03,05,11,23,13.00
2016,03,05,11,24,12.90
2016,03,05,11,25,12.70
2016,03,05,11,26,12.60
2016,03,05,11,27,12.60
2016,03,05,11,28,12.60
2016,03,05,11,29,12.60
2016,03,05,11,30,12.60
2016,03,05,11,31,12.60
2016,03,05,11,32,12.60
2016,03,05,11,33,12.60
2016,03,05,11,34,12.50
2016,03,05,11,35,12.50
2016,03,05,11,36,12.50
2016,03,05,11,37,12.50
2016,03,05,11,38,12.50
2016,03,05,11,39,12.60
2016,03,05,11,40,12.60
2016,03,05,11,41,12.60
2016,03,05,11,42,12.60
2016,03,05,11,43,12.60
2016,03,05,11,44,12.60
2016,03,05,11,45,12.60
2016,03,05,11,46,12.60
2016,03,05,11,47,12.50
2016,03,05,11,48,12.50
2016,03,05,11,49,12.50
2016,03,05,11,50,12.50
2016,03,05,11,51,12.60
2016,03,05,11,52,12.60
2016,03,05,11,53,12.60
2016,03,05,11,54,12.60
2016,03,05,11,55,12.70
2016,03,05,11,56,12.70
2016,03,05,11,57,12.70
2016,03,05,11,58,12.70
2016,03,05,11,59,12.70
2016,03,05,12,00,12.70
2016,03,05,12,01,12.70
2016,03,05,12,02,12.70
2016,03,05,12,03,12.70
2016,03,05,12,04,12.70
2016,03,05,12,05,12.70
2016,03,05,12,06,12.70
2016,03,05,12,07,12.70
2016,03,05,12,08,12.70
2016,03,05,12,09,12.70
2016,03,05,12,10,12.70
2016,03,05,12,11,12.80
2016,03,05,12,12,12.80
2016,03,05,12,13,12.90
2016,03,05,12,14,12.90
2016,03,05,12,15,12.90
2016,03,05,12,16,12.90
2016,03,05,12,17,13.00
2016,03,05,12,18,13.00
2016,03,05,12,19,13.10
2016,03,05,12,20,13.10
2016,03,05,12,21,13.20
2016,03,05,12,22,13.20
2016,03,05,12,23,13.30
2016,03,05,12,24,13.30
2016,03,05,12,25,13.30
2016,03,05,12,26,13.30
2016,03,05,12,27,13.40
2016,03,05,12,28,13.30
2016,03,05,12,29,13.30
2016,03,05,12,30,13.30
2016,03,05,12,31,13.30
2016,03,05,12,32,13.30
2016,03,05,12,33,13.30
2016,03,05,12,34,13.30
2016,03,05,12,35,13.30
2016,03,05,12,36,13.30
2016,03,05,12,37,13.30
2016,03,05,12,38,13.30
2016,03,05,12,39,13.40
2016,03,05,12,40,13.40
2016,03,05,12,41,13.40
2016,03,05,12,42,13.40
2016,03,05,12,43,13.50
2016,03,05,12,44,13.50
2016,03,05,12,45,13.50
2016,03,05,12,46,13.50
2016,03,05,12,47,13.60
2016,03,05,12,48,13.60
2016,03,05,12,49,13.60
2016,03,05,12,50,13.60
2016,03,05,12,51,13.60
2016,03,05,12,52,13.60
2016,03,05,12,53,13.60
2016,03,05,12,54,13.60
2016,03,05,12,55,13.50
2016,03,05,12,56,13.50
2016,03,05,12,57,13.50
2016,03,05,12,58,13.50
2016,03,05,12,59,13.50
2016,03,05,13,00,13.50
2016,03,05,13,01,13.50
2016,03,05,13,02,13.50
2016,03,05,13,03,13.40
2016,03,05,13,04,13.40
2016,03,05,13,05,13.30
2016,03,05,13,06,13.10
2016,03,05,13,07,13.00
2016,03,05,13,08,12.90
2016,03,05,13,09,12.80
2016,03,05,13,10,12.70
2016,03,05,13,11,12.60
2016,03,05,13,12,12.60
2016,03,05,13,13,12.50
2016,03,05,13,14,12.40
2016,03,05,13,15,12.40
2016,03,05,13,16,12.30
2016,03,05,13,17,12.20
2016,03,05,13,18,12.20
2016,03,05,13,19,12.20
2016,03,05,13,20,12.20
2016,03,05,13,21,12.20
2016,03,05,13,22,12.20
2016,03,05,13,23,12.20
2016,03,05,13,24,12.20
2016,03,05,13,25,12.20
2016,03,05,13,26,12.20
2016,03,05,13,27,12.20
2016,03,05,13,28,12.20
2016,03,05,13,29,12.20
2016,03,05,13,30,12.30
2016,03,05,13,31,12.30
2016,03,05,13,32,12.30
2016,03,05,13,33,12.30
2016,03,05,13,34,12.20
2016,03,05,13,35,12.20
2016,03,05,13,36,12.20
2016,03,05,13,37,12.20
2016,03,05,13,38,12.10
2016,03,05,13,39,12.10
2016,03,05,13,40,12.00
2016,03,05,13,41,12.00
2016,03,05,13,42,11.90
2016,03,05,13,43,11.90
2016,03,05,13,44,11.80
2016,03,05,13,45,11.80
2016,03,05,13,46,11.80
2016,03,05,13,47,11.80
2016,03,05,13,48,11.80
2016,03,05,13,49,11.70
2016,03,05,13,50,11.70
2016,03,05,13,51,11.70
2016,03,05,13,52,11.70
2016,03,05,13,53,11.70
2016,03,05,13,54,11.80
2016,03,05,13,55,11.80
2016,03,05,13,56,11.80
2016,03,05,13,57,11.90
2016,03,05,13,58,11.90
2016,03,05,13,59,11.90
2016,03,05,14,00,11.90
2016,03,05,14,01,11.90
2016,03,05,14,02,11.90
2016,03,05,14,03,11.90
2016,03,05,14,04,11.90
2016,03,05,14,05,11.90
2016,03,05,14,06,11.90
2016,03,05,14,07,11.90
2016,03,05,14,08,11.90
2016,03,05,14,09,11.90
2016,03,05,14,10,11.90
2016,03,05,14,11,11.80
2016,03,05,14,12,11.80
2016,03,05,14,13,11.80
2016,03,05,14,14,11.80
2016,03,05,14,15,11.80
2016,03,05,14,16,11.80
2016,03,05,14,17,11.80
2016,03,05,14,18,11.90
2016,03,05,14,19,11.90
2016,03,05,14,20,12.00
2016,03,05,14,21,12.00
2016,03,05,14,22,12.10
2016,03,05,14,23,12.10
2016,03,05,14,24,12.20
2016,03,05,14,25,12.20
2016,03,05,14,26,12.20
2016,03,05,14,27,12.30
2016,03,05,14,28,12.30
2016,03,05,14,29,12.40
2016,03,05,14,30,12.40
2016,03,05,14,31,12.50
2016,03,05,14,32,12.60
2016,03,05,14,33,12.60
2016,03,05,14,34,12.60
2016,03,05,14,35,12.60
2016,03,05,14,36,12.60
2016,03,05,14,37,12.60
2016,03,05,14,38,12.60
2016,03,05,14,39,12.60
2016,03,05,14,40,12.70
2016,03,05,14,41,12.70
2016,03,05,14,42,12.70
2016,03,05,14,43,12.60
2016,03,05,14,44,12.60
2016,03,05,14,45,12.50
2016,03,05,14,46,12.50
2016,03,05,14,47,12.40
2016,03,05,14,48,12.40
2016,03,05,14,49,12.30
2016,03,05,14,50,12.30
2016,03,05,14,51,12.30
2016,03,05,14,52,12.40
2016,03,05,14,53,12.40
2016,03,05,14,54,12.40
2016,03,05,14,55,12.40
2016,03,05,14,56,12.50
2016,03,05,14,57,12.50
2016,03,05,14,58,12.60
2016,03,05,14,59,12.70
2016,03,05,15,00,12.70
2016,03,05,15,01,12.70
2016,03,05,15,02,12.80
2016,03,05,15,03,12.80
2016,03,05,15,04,12.80
2016,03,05,15,05,12.80
2016,03,05,15,06,12.80
2016,03,05,15,07,12.70
2016,03,05,15,08,12.70
2016,03,05,15,09,12.70
2016,03,05,15,10,12.70
2016,03,05,15,11,12.70
2016,03,05,15,12,12.70
2016,03,05,15,13,12.70
2016,03,05,15,14,12.70
2016,03,05,15,15,12.60
2016,03,05,15,16,12.60
2016,03,05,15,17,12.60
2016,03,05,15,18,12.50
2016,03,05,15,19,12.50
2016,03,05,15,20,12.40
2016,03,05,15,21,12.40
2016,03,05,15,22,12.40
2016,03,05,15,23,12.40
2016,03,05,15,24,12.40
2016,03,05,15,25,12.30
2016,03,05,15,26,12.30
2016,03,05,15,27,12.40
2016,03,05,15,28,12.40
2016,03,05,15,29,12.40
2016,03,05,15,30,12.40
2016,03,05,15,31,12.40
2016,03,05,15,32,12.40
2016,03,05,15,33,12.40
2016,03,05,15,34,12.40
2016,03,05,15,35,12.30
2016,03,05,15,36,12.30
2016,03,05,15,37,12.30
2016,03,05,15,38,12.20
2016,03,05,15,39,12.20
2016,03,05,15,40,12.10
2016,03,05,15,41,12.10
2016,03,05,15,42,12.00
2016,03,05,15,43,12.00
2016,03,05,15,44,11.90
2016,03,05,15,45,11.80
2016,03,05,15,46,11.70
2016,03,05,15,47,11.70
2016,03,05,15,48,11.60
2016,03,05,15,49,11.50
2016,03,05,15,50,11.50
2016,03,05,15,51,11.40
2016,03,05,15,52,11.40
2016,03,05,15,53,11.30
2016,03,05,15,54,11.30
2016,03,05,15,55,11.30
2016,03,05,15,56,11.30
2016,03,05,15,57,11.20
2016,03,05,15,58,11.20
2016,03,05,15,59,11.20
2016,03,05,16,00,11.20
2016,03,05,16,01,11.20
2016,03,05,16,02,11.20
2016,03,05,16,03,11.20
2016,03,05,16,04,11.20
2016,03,05,16,05,11.20
2016,03,05,16,06,11.20
2016,03,05,16,07,11.20
2016,03,05,16,08,11.20
2016,03,05,16,09,11.20
2016,03,05,16,10,11.20
2016,03,05,16,11,11.20
2016,03,05,16,12,11.20
2016,03,05,16,13,11.20
2016,03,05,16,14,11.20
2016,03,05,16,15,11.30
2016,03,05,16,16,11.30
2016,03,05,16,17,11.30
2016,03,05,16,18,11.30
2016,03,05,16,19,11.30
2016,03,05,16,20,11.40
2016,03,05,16,21,11.40
2016,03,05,16,22,11.40
2016,03,05,16,23,11.50
2016,03,05,16,24,11.50
2016,03,05,16,25,11.50
2016,03,05,16,26,11.60
2016,03,05,16,27,11.60
2016,03,05,16,28,11.60
2016,03,05,16,29,11.60
2016,03,05,16,30,11.70
2016,03,05,16,31,11.70
2016,03,05,16,32,11.70
2016,03,05,16,33,11.70
2016,03,05,16,34,11.70
2016,03,05,16,35,11.80
2016,03,05,16,36,11.80
2016,03,05,16,37,11.80
2016,03,05,16,38,11.80
2016,03,05,16,39,11.80
2016,03,05,16,40,11.80
2016,03,05,16,41,11.80
2016,03,05,16,42,11.80
2016,03,05,16,43,11.90
2016,03,05,16,44,11.90
2016,03,05,16,45,11.90
2016,03,05,16,46,11.90
2016,03,05,16,47,11.90
2016,03,05,16,48,11.90
2016,03,05,16,49,11.90
2016,03,05,16,50,12.00
2016,03,05,16,51,12.00
2016,03,05,16,52,12.00
2016,03,05,16,53,12.00
2016,03,05,16,54,12.00
2016,03,05,16,55,12.00
2016,03,05,16,56,12.00
2016,03,05,16,57,12.10
2016,03,05,16,58,12.10
2016,03,05,16,59,12.10
2016,03,05,17,00,12.10
2016,03,05,17,01,12.10
2016,03,05,17,02,12.10
2016,03,05,17,03,12.10
2016,03,05,17,04,12.10
2016,03,05,17,05,12.10
2016,03,05,17,06,12.10
2016,03,05,17,07,12.10
2016,03,05,17,08,12.10
2016,03,05,17,09,12.10
2016,03,05,17,10,12.10
2016,03,05,17,11,12.10
2016,03,05,17,12,12.10
2016,03,05,17,13,12.10
2016,03,05,17,14,12.10
2016,03,05,17,15,12.00
2016,03,05,17,16,12.00
2016,03,05,17,17,12.00
2016,03,05,17,18,12.00
2016,03,05,17,19,12.00
2016,03,05,17,20,12.00
2016,03,05,17,21,12.00
2016,03,05,17,22,12.00
2016,03,05,17,23,11.90
2016,03,05,17,24,11.90
2016,03,05,17,25,11.90
2016,03,05,17,26,11.90
2016,03,05,17,27,11.90
2016,03,05,17,28,11.90
2016,03,05,17,29,11.90
2016,03,05,17,30,11.80
2016,03,05,17,31,11.80
2016,03,05,17,32,11.80
2016,03,05,17,33,11.80
2016,03,05,17,34,11.80
2016,03,05,17,35,11.80
2016,03,05,17,36,11.70
2016,03,05,17,37,11.70
2016,03,05,17,38,11.70
2016,03,05,17,39,11.60
2016,03,05,17,40,11.60
2016,03,05,17,41,11.60
2016,03,05,17,42,11.50